GW6871 Weather Reports


time (UTC)temp
F
wind
direction
speed
knots
gust
knots
rain 1hr
in
rain 24hr
in
rain mn
in
humidity
%
barometer
mb
20260504205837 71 324 0.9 2.6 0.00 0.01 0.01 88 1011.4
20260504205335 71 343 1.7 5.2 0.00 0.01 0.01 88 1011.6
20260504204833 71 280 0.9 2.6 0.00 0.01 0.01 87 1011.7
20260504204331 71 32 2.6 5.2 0.00 0.01 0.01 87 1011.8
20260504203830 71 322 0.9 1.7 0.00 0.01 0.01 87 1011.7
20260504203326 71 305 0.9 3.5 0.00 0.01 0.01 87 1012.1
20260504202822 71 291 0.9 3.5 0.00 0.01 0.01 87 1011.8
20260504202320 71 315 0.9 2.6 0.00 0.01 0.01 87 1011.9
20260504201816 72 347 0.9 2.6 0.00 0.01 0.01 87 1011.8
20260504201314 71 317 0.9 3.5 0.07 0.01 0.01 87 1011.6
20260504200811 72 336 0.9 5.2 0.07 0.01 0.01 87 1011.9
20260504200307 72 78 1.7 5.2 0.00 0.00 0.00 87 1011.7
20260504195803 72 308 1.7 2.6 0.00 0.00 0.00 87 1011.7
20260504195259 71 288 2.6 6.1 0.00 0.00 0.00 86 1011.7
20260504194756 71 304 1.7 7.8 0.00 0.00 0.00 86 1012.0
20260504194253 72 306 1.7 7.0 0.00 0.00 0.00 86 1011.9
20260504193749 72 8 6.1 8.7 0.00 0.00 0.00 85 1011.7
20260504193246 73 39 8.7 13.9 0.00 0.00 0.00 83 1011.7
20260504192745 73 295 5.2 13.0 0.00 0.00 0.00 82 1011.8
20260504192242 73 230 1.7 8.7 0.00 0.00 0.00 81 1011.5
20260504191741 74 19 1.7 9.6 0.00 0.00 0.00 80 1011.6
20260504191237 74 344 1.7 7.8 0.00 0.00 0.00 81 1011.4
20260504190733 74 229 0.9 6.1 0.00 0.00 0.00 80 1011.5
20260504190230 75 359 2.6 7.0 0.00 0.00 0.00 81 1011.5
20260504185726 75 214 2.6 5.2 0.00 0.00 0.00 82 1011.3
20260504185223 75 16 4.3 9.6 0.00 0.00 0.00 84 1011.3
20260504184719 75 332 3.5 7.0 0.00 0.00 0.00 85 1011.1
20260504184215 75 15 2.6 8.7 0.00 0.00 0.00 86 1011.2
20260504183711 75 307 0.9 7.8 0.00 0.00 0.00 87 1011.0
20260504183208 75 329 0.9 0.9 0.00 0.00 0.00 87 1010.6
20260504182706 75 317 0.0 0.9 0.00 2.48 2.48 87 1010.4
20260504182203 75 321 0.0 1.7 0.00 2.48 2.48 88 1010.5
20260504181701 75 311 0.9 0.9 0.00 2.48 2.48 88 1010.6
20260504181158 75 224 0.0 0.9 0.00 2.48 2.48 88 1010.4
20260504180657 75 181 0.0 0.0 0.00 2.48 2.48 88 1010.5
20260504180155 75 184 0.0 0.9 0.00 2.48 2.48 88 1010.3
20260504175652 75 159 0.0 0.9 0.00 2.48 2.48 88 1010.4
20260504175149 75 155 0.0 0.0 0.00 2.48 2.48 88 1010.6
20260504174647 75 155 0.0 0.0 0.00 2.48 2.48 87 1010.7
20260504174143 76 155 0.0 0.0 0.00 2.48 2.48 87 1010.5
20260504173640 76 155 0.0 0.9 0.00 2.48 2.48 87 1010.4
20260504173138 76 155 0.0 0.9 0.00 2.48 2.48 87 1010.6
20260504172635 76 164 0.0 0.0 0.00 2.48 2.48 87 1010.5
20260504172131 76 164 0.0 0.0 0.00 2.48 2.48 87 1010.5
20260504171627 76 164 0.0 0.0 0.00 2.48 2.48 86 1010.5
20260504171125 76 164 0.0 0.0 0.00 2.48 2.48 86 1010.2
20260504170621 76 164 0.0 0.0 0.00 2.48 2.48 86 1010.2
20260504170119 76 164 0.0 0.9 0.00 2.48 2.48 86 1010.2
20260504151004 75 174 1.7 2.6 0.00 2.48 2.48 83 1009.8
20260504150501 75 172 0.9 2.6 0.00 2.48 2.48 84 1009.6
20260504140927 75 187 0.9 6.1 0.00 2.48 2.48 81 1008.0
20260504140424 75 187 1.7 6.1 0.00 2.48 2.48 81 1008.0
20260504130349 74 177 2.6 7.0 0.00 2.48 2.48 84 1008.1
20260504120311 74 167 1.7 3.5 0.05 2.48 2.48 90 1007.1
20260504110236 75 304 6.1 13.0 2.03 0.35 0.35 84 1006.3
20260504100159 93 184 0.9 1.7 0.00 0.00 0.00 63 1006.3
20260504090122 96 193 0.0 1.7 0.00 0.00 0.00 55 1007.2
20260504081558 97 195 0.0 1.7 0.00 0.00 0.00 56 1008.3
20260504081054 99 182 1.7 1.7 0.00 0.00 0.00 51 1008.3
20260504080551 98 290 1.7 2.6 0.00 0.00 0.00 51 1008.4
20260504050403 94 164 1.7 2.6 0.00 0.00 0.00 55 1010.6
20260504045900 95 164 1.7 1.7 0.00 0.00 0.00 52 1010.4
20260504045355 94 160 0.9 1.7 0.00 0.00 0.00 56 1010.7
20260504044853 93 127 1.7 2.6 0.00 0.00 0.00 56 1010.5
20260504044350 93 263 0.0 2.6 0.00 0.00 0.00 57 1010.3
20260504043847 93 159 0.0 2.6 0.00 0.00 0.00 57 1010.5
20260504043344 94 222 0.0 0.9 0.00 0.00 0.00 57 1010.4
20260504042841 92 156 0.0 1.7 0.00 0.00 0.00 58 1010.4
20260504042338 92 184 3.5 3.5 0.00 0.00 0.00 57 1010.3
20260504041834 92 299 1.7 2.6 0.00 0.00 0.00 58 1010.4
20260504041330 91 165 1.7 5.2 0.00 0.00 0.00 60 1010.5
20260504040826 92 182 2.6 3.5 0.00 0.00 0.00 58 1010.5
20260504040324 91 178 0.9 1.7 0.00 0.00 0.00 59 1010.5
20260504035820 89 227 1.7 1.7 0.00 0.00 0.00 61 1010.5
20260504035318 90 179 3.5 5.2 0.00 0.00 0.00 62 1010.2
20260504034815 90 178 0.9 2.6 0.00 0.00 0.00 63 1010.5
20260504034312 91 204 0.9 1.7 0.00 0.00 0.00 61 1010.3
20260504033809 90 174 1.7 1.7 0.00 0.00 0.00 61 1010.4
20260504033307 89 147 1.7 3.5 0.00 0.00 0.00 63 1010.2
20260504032803 89 148 1.7 2.6 0.00 0.00 0.00 64 1010.4
20260504032300 90 171 0.9 1.7 0.00 0.00 0.00 63 1010.0
20260504031757 89 158 1.7 2.6 0.00 0.00 0.00 65 1010.0
20260504031255 89 160 0.9 3.5 0.00 0.00 0.00 64 1010.0
20260504030750 89 158 1.7 1.7 0.00 0.00 0.00 63 1010.1
20260504030248 88 168 0.0 2.6 0.00 0.00 0.00 65 1009.9
20260504025744 88 158 1.7 1.7 0.00 0.00 0.00 65 1010.0
20260504025241 88 168 0.0 3.5 0.00 0.00 0.00 66 1009.7
20260504024738 89 251 0.0 3.5 0.00 0.00 0.00 67 1009.9
20260504024234 88 85 0.0 0.9 0.00 0.00 0.00 67 1009.9
20260504023731 87 146 0.0 1.7 0.00 0.00 0.00 68 1009.7
20260504023227 87 171 0.0 1.7 0.00 0.00 0.00 69 1009.7
20260504022724 87 145 0.9 1.7 0.00 0.00 0.00 71 1009.6
20260504022220 87 184 0.0 2.6 0.00 0.00 0.00 71 1009.4
20260504021717 86 196 0.0 0.9 0.00 0.00 0.00 73 1009.4
20260504021215 86 167 0.9 1.7 0.00 0.00 0.00 74 1009.5
20260504020711 86 185 0.9 1.7 0.00 0.00 0.00 74 1009.4
20260504020207 85 198 0.9 2.6 0.00 0.00 0.00 74 1009.2
20260504015704 85 189 0.9 0.9 0.00 0.00 0.00 75 1009.2
20260504015200 85 175 0.0 1.7 0.00 0.00 0.00 76 1009.2
20260504014656 84 181 0.9 1.7 0.00 0.00 0.00 78 1009.4
20260504014153 83 172 0.9 1.7 0.00 0.00 0.00 78 1009.1
20260504013651 84 173 0.9 3.5 0.00 0.00 0.00 78 1009.0
20260504013148 84 191 0.9 1.7 0.00 0.00 0.00 77 1008.7
20260504012645 83 117 0.9 1.7 0.00 0.00 0.00 79 1008.6
20260504012143 83 216 1.7 2.6 0.00 0.00 0.00 80 1008.5
20260504011639 83 146 0.9 1.7 0.00 0.00 0.00 80 1008.3
20260504011136 82 174 0.9 1.7 0.00 0.00 0.00 81 1007.9
20260504010632 82 186 1.7 2.6 0.00 0.00 0.00 81 1007.9
20260504010128 82 169 0.0 1.7 0.00 0.00 0.00 82 1007.9
20260504005625 81 148 0.9 2.6 0.00 0.00 0.00 83 1008.1
20260504005122 81 120 0.0 3.5 0.00 0.00 0.00 83 1008.0
20260504004620 80 173 0.0 3.5 0.00 0.00 0.00 84 1007.8
20260504004117 80 111 1.7 2.6 0.00 0.00 0.00 84 1007.8
20260504003613 80 146 0.0 2.6 0.00 0.00 0.00 85 1007.9
20260504003109 80 141 1.7 3.5 0.00 0.00 0.00 85 1007.5
20260504002606 80 191 1.7 2.6 0.00 0.00 0.00 85 1007.7
20260504002104 80 173 0.9 3.5 0.00 0.00 0.00 86 1007.5
20260504001602 79 124 0.9 2.6 0.00 0.00 0.00 86 1007.4
20260504001057 79 150 0.0 1.7 0.00 0.00 0.00 87 1007.5
20260504000555 79 162 1.7 1.7 0.00 0.00 0.00 87 1007.3
20260504000052 79 213 0.0 1.7 0.00 0.00 0.00 87 1007.3
20260503235550 79 182 1.7 5.2 0.00 0.00 0.00 87 1007.3
20260503235047 79 182 0.0 0.9 0.00 0.00 0.00 88 1007.3
20260503234544 79 159 0.9 2.6 0.00 0.00 0.00 88 1007.0
20260503234043 79 155 1.7 1.7 0.00 0.00 0.00 87 1007.2
20260503233539 79 168 1.7 1.7 0.00 0.00 0.00 87 1007.1
20260503233035 79 173 0.0 0.9 0.00 0.00 0.00 87 1007.2
20260503232532 79 170 0.0 0.9 0.00 0.00 0.00 87 1007.1
20260503232029 79 164 0.9 0.9 0.00 0.00 0.00 87 1006.9
20260503231527 79 173 1.7 2.6 0.00 0.00 0.00 86 1007.1
20260503231024 79 159 0.0 0.9 0.00 0.00 0.00 86 1007.2
20260503230520 79 156 0.0 0.9 0.00 0.00 0.00 86 1007.0
20260503230018 79 159 0.9 0.9 0.00 0.00 0.00 86 1007.2
20260503225515 79 155 0.0 0.9 0.00 0.00 0.00 86 1007.2
20260503225010 80 155 0.9 1.7 0.00 0.00 0.00 86 1007.2
20260503224507 80 169 0.9 2.6 0.00 0.00 0.00 86 1007.4
20260503224005 80 155 0.9 0.9 0.00 0.00 0.00 85 1007.3
20260503223503 80 162 0.0 0.9 0.00 0.00 0.00 85 1007.3
20260503222958 80 162 0.0 0.9 0.00 0.00 0.00 85 1007.5
20260503222457 80 164 0.9 0.9 0.00 0.00 0.00 85 1007.6
20260503221954 80 157 0.0 0.9 0.00 0.00 0.00 85 1007.3
20260503221452 80 157 0.0 0.9 0.00 0.00 0.00 85 1007.4
20260503220949 80 151 0.9 0.9 0.00 0.00 0.00 85 1007.4
20260503220445 80 150 0.0 1.7 0.00 0.00 0.00 84 1007.4
20260503215942 80 157 0.0 0.9 0.00 0.00 0.00 84 1007.7
20260503215439 80 158 0.0 0.9 0.00 0.00 0.00 84 1007.5
20260503214937 80 161 0.0 0.9 0.00 0.00 0.00 84 1007.5
20260503214435 80 147 0.0 0.9 0.00 0.00 0.00 85 1007.5
20260503213931 80 126 0.9 2.6 0.00 0.00 0.00 85 1007.3
20260503213430 80 171 0.9 1.7 0.00 0.00 0.00 84 1007.4
20260503212926 80 137 0.0 0.9 0.00 0.00 0.00 84 1007.6
20260503212423 80 129 0.0 0.9 0.00 0.00 0.00 84 1007.2
20260503211921 80 175 0.9 1.7 0.00 0.00 0.00 84 1007.4
20260503211417 81 176 0.0 0.0 0.00 0.00 0.00 83 1007.4
20260503210913 81 176 0.0 0.9 0.00 0.00 0.00 83 1007.5
20260503210410 81 176 0.9 1.7 0.00 0.00 0.00 83 1007.3